Ithaca, NY

10:17 PM EDT on June 26, 2017 (GMT -0400)
Tompkins County

Weather History for KITH - April, 2013

Change the Weather History Date:

Tuesday, April 16, 2013

  Actual Average Record
Temperature  
Mean Temperature 56 °F -  
Max Temperature 61 °F 55 °F 86 °F (2002)
Min Temperature 46 °F 37 °F 20 °F (1943)
Degree Days  
Heating Degree Days 10    
Growing Degree Days 6 (Base 50)    
Moisture  
Dew Point 48 °F    
Average Humidity 81    
Maximum Humidity 94    
Minimum Humidity 64    
Precipitation  
Precipitation 0.21 in - - ()
Sea Level Pressure  
Sea Level Pressure 30.14 in    
Wind  
Wind Speed 12 mph (SSW)    
Max Wind Speed 20 mph    
Max Gust Speed 29 mph    
Visibility 9 miles    
Events Rain    
Averages and records for this station are not official NWS values.
T = Trace of Precipitation, MM = Missing Value Source: NWS Daily Summary

Daily Weather History Graph

Daily Weather History Graph

Search for Another Location

Airport or City:

Trip Planner

Search our weather history database for the weather conditions in past years. The results will help you decide how hot, cold, wet, or windy it might be!

Date:

Astronomy

Apr. 16, 2013 Rise Set
Actual Time 6:22 AM EDT 7:49 PM EDT
Civil Twilight 5:53 AM EDT 8:18 PM EDT
Nautical Twilight 5:18 AM EDT 8:53 PM EDT
Astronomical Twilight 4:40 AM EDT 9:31 PM EDT
Moon 10:36 AM EDT (4/16) 12:47 AM EDT (4/16)
Length of Visible Light 14h 25m
Length of Day
13h 26m
Waxing Crescent, 33% of the Moon is Illuminated
Apr 16
Waxing Crescent
Apr 18
First Quarter
Apr 25
Full
May 2
Last Quarter
May 9
New

Hourly Weather History & Observations

Time (EDT) Temp. Dew Point Humidity Pressure Visibility Wind Dir Wind Speed Gust Speed Precip Events Conditions
12:56 AM 54.0 °F 41.9 °F 64% 30.20 in 10.0 mi South 10.4 mph - N/A   Overcast
1:56 AM 54.0 °F 43.0 °F 66% 30.19 in 10.0 mi South 11.5 mph - N/A   Overcast
2:56 AM 52.9 °F 41.9 °F 66% 30.18 in 10.0 mi South 15.0 mph 27.6 mph N/A   Overcast
3:56 AM 52.0 °F 41.9 °F 69% 30.18 in 10.0 mi SSE 11.5 mph - N/A   Overcast
4:56 AM 52.0 °F 41.0 °F 66% 30.17 in 10.0 mi South 11.5 mph - N/A   Overcast
5:56 AM 52.0 °F 41.0 °F 66% 30.14 in 10.0 mi SSE 12.7 mph - N/A   Overcast
6:09 AM 51.8 °F 42.8 °F 71% 30.15 in 10.0 mi South 11.5 mph - N/A   Overcast
6:56 AM 52.0 °F 43.0 °F 71% 30.17 in 10.0 mi South 11.5 mph - N/A   Overcast
7:56 AM 54.0 °F 45.9 °F 74% 30.15 in 10.0 mi South 18.4 mph 27.6 mph N/A   Mostly Cloudy
8:56 AM 54.9 °F 46.9 °F 75% 30.14 in 10.0 mi South 19.6 mph 25.3 mph N/A   Overcast
9:56 AM 57.9 °F 47.8 °F 69% 30.11 in 10.0 mi South 18.4 mph 24.2 mph N/A   Overcast
10:56 AM 57.9 °F 48.9 °F 72% 30.12 in 10.0 mi South 13.8 mph - N/A   Mostly Cloudy
11:56 AM 55.9 °F 50.9 °F 83% 30.13 in 7.0 mi SSW 11.5 mph - 0.02 in Rain Light Rain
12:56 PM 54.0 °F 52.0 °F 93% 30.14 in 7.0 mi South 8.1 mph - 0.04 in Rain Light Rain
1:56 PM 54.9 °F 52.0 °F 90% 30.10 in 10.0 mi South 16.1 mph 20.7 mph 0.00 in   Overcast
2:56 PM 57.9 °F 52.9 °F 83% 30.07 in 10.0 mi South 8.1 mph 18.4 mph N/A   Overcast
3:56 PM 59.9 °F 54.0 °F 81% 30.06 in 10.0 mi South 13.8 mph 20.7 mph N/A   Overcast
4:56 PM 61.0 °F 54.0 °F 78% 30.04 in 10.0 mi South 12.7 mph - N/A   Overcast
5:56 PM 59.9 °F 54.0 °F 81% 30.04 in 10.0 mi South 10.4 mph - N/A   Overcast
6:56 PM 59.9 °F 54.0 °F 81% 30.04 in 10.0 mi SSW 12.7 mph 20.7 mph 0.00 in Rain Light Rain
7:09 PM 59.0 °F 55.4 °F 88% 30.08 in 7.0 mi NW 18.4 mph 28.8 mph 0.00 in Rain Rain
7:21 PM 57.2 °F 55.4 °F 94% 30.09 in 2.0 mi NNW 13.8 mph - 0.11 in Rain Rain
7:56 PM 55.9 °F 54.0 °F 93% 30.12 in 6.0 mi NW 10.4 mph - 0.11 in Rain Light Rain
8:56 PM 52.0 °F 50.0 °F 93% 30.16 in 10.0 mi North 5.8 mph - 0.02 in Rain Light Rain
9:56 PM 50.9 °F 48.9 °F 93% 30.20 in 10.0 mi NNW 9.2 mph - 0.02 in   Overcast
9:59 PM 51.8 °F 48.2 °F 88% 30.19 in 10.0 mi NNW 8.1 mph - N/A   Overcast
10:08 PM 50.0 °F 48.2 °F 94% 30.19 in 10.0 mi North 5.8 mph - N/A   Overcast
10:20 PM 50.0 °F 48.2 °F 94% 30.19 in 10.0 mi North 5.8 mph - N/A   Overcast
10:36 PM 50.0 °F 46.4 °F 87% 30.20 in 10.0 mi North 3.5 mph - 0.00 in Rain Light Rain
10:56 PM 50.0 °F 47.8 °F 92% 30.22 in 10.0 mi NW 3.5 mph - 0.00 in Rain Light Rain
11:06 PM 50.0 °F 46.4 °F 87% 30.21 in 10.0 mi NW 5.8 mph - 0.00 in Rain Light Rain
11:56 PM 46.9 °F 41.0 °F 80% 30.22 in 10.0 mi North 9.2 mph - 0.00 in   Overcast